El Salvador, El Salvador

12:49 AM CST on February 10, 2016 (GMT -0600)
El Salvador International | | Change Station
CLOSE
Current Station
Airport
Location: El Salvador,
Elevation: 82 ft
Nearby Weather Stations

Elev 82 ft 13.44 °N, 89.06 °W | Updated 59 minutes ago

Clear
Clear
81 °F
Feels Like 80 °F
N
20
Wind Variable Wind from North
Gusts 32 mph

Today
High -- | Low -- °F
--% Chance of Precip.
Yesterday
High -- | Low -- °F
Precip. -- in
Pressure 29.92 in
Visibility -9999.0 miles
Clouds
Heat Index 80 °F
Dew Point 54 °F
Humidity 39%
Rainfall 0.00 in
Snow Depth Not available.
6:20 AM 6:00 PM
Waxing Crescent, 4% visible
METAR MSLP 100550Z 36017G28KT 340V040 CAVOK 27/12 Q1013 A2992
Pressure 29.92 in
Visibility -9999.0 miles
Clouds
Heat Index 80 °F
Dew Point 54 °F
Humidity 39%
Rainfall 0.00 in
Snow Depth Not available.
6:20 AM 6:00 PM
Waxing Crescent, 4% visible
METAR MSLP 100550Z 36017G28KT 340V040 CAVOK 27/12 Q1013 A2992

10-Day Weather Forecast

No radar image for this location.
×

Almanac

Astronomy

Feb. 10, 2016 Rise Set
Actual Time
Civil Twilight
Nautical Twilight
Astronomical Twilight
Moon
Length of Visible Light
Length of Day
Tomorrow will be .
, % of the Moon is Illuminated

Today's Extremes

Country Highs Country Lows

Community

WunderPhotos

Upload Photos

1,891,826 photos uploaded!

WunderBlog® & News

Nearby

Air Quality

  Air Quality AQ Index Pollutant
Not available.

Snow Depth

Station Depth Elevation

Earthquake Activity

City Distance Mag. Time & Date
Minimum magnitude displayed is 2.5.

Coastal Water Temperatures

Place Temperature

Stations

Nearby Weather Stations

Station Location Temp. Windchill Dew Point Humidity Wind Precip. Elev Updated Type